Darstellungsparameter: Aktuell verwendete Einstellungen:
Skalierung der Graphiken ... ?
xyx+y,   Skalierungsfaktor:      Skalierung: Modus: x, Faktor: 1
Darstellungszeitraum ... ?
Vom - - bis: - -   Zeitraum: 25.06.2022 - 25.06.2022
Min/Max/Avg-Anzeige ... ?
Zeige MMA aktuell
Zeige MMA Monat
Zeige MMA alles
Zeige --A aktuell
Zeige --A Monat
Zeige --A alles
Keine MMA-Anzeige
MMA:
Average (ber die Originaldaten)
MMA-Basis: 25.06.2022 - 25.06.2022
Quicknavigation für Darstellung... ?
Tage:      1T, 2T, 3T, 5T -1T -2T -3T -5T +1T +2T +3T +5T
Wochen: 1W, 2W, 3W -1W -2W -3W +1W +2W +3W
Monate: 1M, 3M, 6M -1M -3M -6M +1M +3M +6M
Jahre:    1J, 3J, 5J, 10J -1J -3J -5J -10J +1J +3J +5J +10J
Nutze für die Darstellung ... ?
Originaldaten oder Mittelwerte auf ...
Stundenbasis Tagesbasis Wochenbasis
Monatsbasis Jahresbasis      Datenbasis: Original-Daten
Darstellen als:
Statistik (Auto) Statistik J:M      Darstellung:

Der gewünschte Datumsbereich war nicht gültig/verfügbar und wurde korrigiert....
Das angegebene Enddatum (16.05.2025 23:59:59) liegt in der Zukunft.
Das angegebene Startdatum (16.05.2025 00:00:00) liegt in der Zukunft.


Zur Graphik,    zurück zur Übersicht aller Sensoren.
 
Tabellarische Datenbersicht: ?
 
Sensor: Nr:Datum:Temp:Abs-Feuchte:Windchill:Wind:
Aussen-T/F 1 25-06-2022 02:00:00 15.8 C 12.11 g/m*3 15.8 C 0 km/h
2 25-06-2022 02:05:00 15.7 C 12.18 g/m*3 15.7 C 0 km/h
3 25-06-2022 02:10:00 15.7 C 12.18 g/m*3 15.7 C 0 km/h
4 25-06-2022 02:15:00 15.6 C 12.1 g/m*3 15.6 C 0 km/h
5 25-06-2022 02:20:00 15.5 C 12.03 g/m*3 15.5 C 0 km/h
6 25-06-2022 02:25:00 15.4 C 11.96 g/m*3 15.4 C 0 km/h
7 25-06-2022 02:30:00 15.3 C 11.88 g/m*3 15.3 C 0 km/h
8 25-06-2022 02:35:00 15.2 C 11.81 g/m*3 15.2 C 0 km/h
9 25-06-2022 02:40:00 15.2 C 11.81 g/m*3 15.2 C 0 km/h
10 25-06-2022 02:45:00 15.1 C 11.74 g/m*3 15.1 C 0 km/h
11 25-06-2022 02:50:00 15.1 C 11.87 g/m*3 15.1 C 0 km/h
12 25-06-2022 02:55:00 15 C 11.8 g/m*3 15 C 0 km/h
13 25-06-2022 03:00:00 14.9 C 11.73 g/m*3 14.9 C 0 km/h
14 25-06-2022 03:05:00 14.9 C 11.73 g/m*3 14.9 C 0 km/h
15 25-06-2022 03:10:00 14.8 C 11.65 g/m*3 14.8 C 1.6 km/h
16 25-06-2022 03:15:00 14.8 C 11.78 g/m*3 14.8 C 1.6 km/h
17 25-06-2022 03:20:00 14.8 C 11.78 g/m*3 14.8 C 3.2 km/h
18 25-06-2022 03:25:00 14.8 C 11.78 g/m*3 14.8 C 1.6 km/h
19 25-06-2022 03:30:00 14.8 C 11.78 g/m*3 14.8 C 3.2 km/h
20 25-06-2022 03:35:00 14.8 C 11.91 g/m*3 14.8 C 1.6 km/h
21 25-06-2022 03:40:00 14.8 C 11.91 g/m*3 14.8 C 1.6 km/h
22 25-06-2022 03:45:00 14.8 C 11.91 g/m*3 14.8 C 1.6 km/h
23 25-06-2022 03:50:00 14.9 C 11.98 g/m*3 14.9 C 0 km/h
24 25-06-2022 03:55:00 14.9 C 11.98 g/m*3 14.9 C 0 km/h
25 25-06-2022 04:00:00 14.8 C 11.91 g/m*3 14.8 C 0 km/h
Sensor: Nr:Datum:Temp:Abs-Feuchte:Windchill:Wind:
Aussen-T/F 26 25-06-2022 04:05:00 14.8 C 11.91 g/m*3 14.8 C 1.6 km/h
27 25-06-2022 04:10:00 14.8 C 11.91 g/m*3 14.8 C 1.6 km/h
28 25-06-2022 04:15:00 14.7 C 11.83 g/m*3 14.7 C 0 km/h
29 25-06-2022 04:20:00 14.6 C 11.76 g/m*3 14.6 C 0 km/h
30 25-06-2022 04:25:00 14.6 C 11.76 g/m*3 14.6 C 0 km/h
31 25-06-2022 04:30:00 14.5 C 11.69 g/m*3 14.5 C 0 km/h
32 25-06-2022 04:35:00 14.4 C 11.62 g/m*3 14.4 C 0 km/h
33 25-06-2022 04:40:00 14.4 C 11.62 g/m*3 14.4 C 0 km/h
34 25-06-2022 04:45:00 14.4 C 11.62 g/m*3 14.4 C 0 km/h
35 25-06-2022 04:50:00 14.4 C 11.62 g/m*3 14.4 C 0 km/h
36 25-06-2022 04:55:00 14.4 C 11.62 g/m*3 14.4 C 0 km/h
37 25-06-2022 05:00:00 14.3 C 11.55 g/m*3 14.3 C 0 km/h
38 25-06-2022 05:05:00 14.3 C 11.55 g/m*3 14.3 C 0 km/h
39 25-06-2022 05:10:00 14.2 C 11.48 g/m*3 14.2 C 0 km/h
40 25-06-2022 05:15:00 14.2 C 11.48 g/m*3 14.2 C 0 km/h
41 25-06-2022 05:20:00 14.1 C 11.41 g/m*3 14.1 C 0 km/h
42 25-06-2022 05:25:00 14.1 C 11.41 g/m*3 14.1 C 0 km/h
43 25-06-2022 05:30:00 14 C 11.34 g/m*3 14 C 0 km/h
44 25-06-2022 05:35:00 13.9 C 11.27 g/m*3 13.9 C 0 km/h
45 25-06-2022 05:40:00 13.9 C 11.27 g/m*3 13.9 C 0 km/h
46 25-06-2022 05:45:00 13.9 C 11.39 g/m*3 13.9 C 0 km/h
47 25-06-2022 05:50:00 13.9 C 11.39 g/m*3 13.9 C 0 km/h
48 25-06-2022 05:55:00 14 C 11.46 g/m*3 14 C 0 km/h
49 25-06-2022 06:00:00 14 C 11.46 g/m*3 14 C 0 km/h
50 25-06-2022 06:05:00 14.1 C 11.53 g/m*3 14.1 C 0 km/h
Sensor: Nr:Datum:Temp:Abs-Feuchte:Windchill:Wind:
Aussen-T/F 51 25-06-2022 06:10:00 14.1 C 11.53 g/m*3 14.1 C 0 km/h
52 25-06-2022 06:15:00 14.1 C 11.53 g/m*3 14.1 C 0 km/h
53 25-06-2022 06:20:00 14.1 C 11.53 g/m*3 14.1 C 0 km/h
54 25-06-2022 06:25:00 14.2 C 11.6 g/m*3 14.2 C 0 km/h
55 25-06-2022 06:30:00 14.2 C 11.6 g/m*3 14.2 C 0 km/h
56 25-06-2022 06:35:00 14.3 C 11.67 g/m*3 14.3 C 0 km/h
57 25-06-2022 06:40:00 14.3 C 11.67 g/m*3 14.3 C 0 km/h
58 25-06-2022 06:45:00 14.5 C 11.82 g/m*3 14.5 C 0 km/h
59 25-06-2022 06:50:00 14.7 C 11.96 g/m*3 14.7 C 0 km/h
60 25-06-2022 06:55:00 14.9 C 12.24 g/m*3 14.9 C 0 km/h
61 25-06-2022 07:00:00 15.1 C 12.39 g/m*3 15.1 C 0 km/h
62 25-06-2022 07:05:00 15.3 C 12.54 g/m*3 15.3 C 0 km/h
63 25-06-2022 07:10:00 15.5 C 12.69 g/m*3 15.5 C 0 km/h
64 25-06-2022 07:15:00 15.7 C 12.84 g/m*3 15.7 C 1.6 km/h
65 25-06-2022 07:20:00 15.9 C 13 g/m*3 15.9 C 3.2 km/h
66 25-06-2022 07:25:00 16.1 C 13.16 g/m*3 16.1 C 1.6 km/h
67 25-06-2022 07:30:00 16.2 C 13.24 g/m*3 16.2 C 0 km/h
68 25-06-2022 07:35:00 16.3 C 13.32 g/m*3 16.3 C 0 km/h
69 25-06-2022 07:40:00 16.4 C 13.4 g/m*3 16.4 C 0 km/h
70 25-06-2022 07:45:00 16.5 C 13.48 g/m*3 16.5 C 1.6 km/h
71 25-06-2022 07:50:00 16.6 C 13.56 g/m*3 16.6 C 0 km/h
72 25-06-2022 07:55:00 16.6 C 13.56 g/m*3 16.6 C 1.6 km/h
73 25-06-2022 08:00:00 16.7 C 13.5 g/m*3 16.7 C 6.4 km/h
74 25-06-2022 08:05:00 16.7 C 13.5 g/m*3 16.7 C 6.4 km/h
75 25-06-2022 08:10:00 16.8 C 13.44 g/m*3 16.8 C 4.8 km/h
Sensor: Nr:Datum:Temp:Abs-Feuchte:Windchill:Wind:
Aussen-T/F 76 25-06-2022 08:15:00 17.1 C 13.68 g/m*3 17.1 C 4.8 km/h
77 25-06-2022 08:20:00 17.2 C 13.62 g/m*3 17.2 C 1.6 km/h
78 25-06-2022 08:25:00 17.3 C 13.55 g/m*3 17.3 C 4.8 km/h
79 25-06-2022 08:30:00 17.4 C 13.63 g/m*3 17.4 C 3.2 km/h
80 25-06-2022 08:35:00 17.5 C 13.57 g/m*3 17.5 C 4.8 km/h
81 25-06-2022 08:40:00 17.6 C 13.5 g/m*3 17.6 C 6.4 km/h
82 25-06-2022 08:45:00 17.8 C 13.66 g/m*3 17.8 C 8.1 km/h
83 25-06-2022 08:50:00 17.9 C 13.59 g/m*3 17.9 C 4.8 km/h
84 25-06-2022 08:55:00 18.1 C 13.75 g/m*3 18.1 C 6.4 km/h
85 25-06-2022 09:00:00 18.2 C 13.52 g/m*3 18.2 C 9.7 km/h
86 25-06-2022 09:05:00 18.3 C 13.6 g/m*3 18.3 C 9.7 km/h
87 25-06-2022 09:10:00 18.5 C 13.61 g/m*3 18.5 C 9.7 km/h
88 25-06-2022 09:15:00 18.6 C 13.69 g/m*3 18.6 C 8.1 km/h
89 25-06-2022 09:20:00 18.7 C 13.77 g/m*3 18.7 C 1.6 km/h
90 25-06-2022 09:25:00 18.9 C 13.77 g/m*3 18.9 C 6.4 km/h
91 25-06-2022 09:30:00 19.2 C 13.85 g/m*3 19.2 C 6.4 km/h
92 25-06-2022 09:35:00 19.3 C 13.77 g/m*3 19.3 C 8.1 km/h
93 25-06-2022 09:40:00 19.4 C 13.68 g/m*3 19.4 C 6.4 km/h
94 25-06-2022 09:45:00 19.7 C 13.92 g/m*3 19.7 C 6.4 km/h
95 25-06-2022 09:50:00 20 C 13.83 g/m*3 20 C 9.7 km/h
96 25-06-2022 09:55:00 20.1 C 13.91 g/m*3 20.1 C 4.8 km/h
97 25-06-2022 10:00:00 20.2 C 13.64 g/m*3 20.2 C 4.8 km/h
98 25-06-2022 10:05:00 20.2 C 13.81 g/m*3 20.2 C 3.2 km/h
99 25-06-2022 10:10:00 20.2 C 13.99 g/m*3 20.2 C 1.6 km/h
100 25-06-2022 10:15:00 20.2 C 14.16 g/m*3 20.2 C 3.2 km/h
Sensor: Nr:Datum:Temp:Abs-Feuchte:Windchill:Wind:
Aussen-T/F 101 25-06-2022 10:20:00 20.2 C 13.81 g/m*3 20.2 C 1.6 km/h
102 25-06-2022 10:25:00 20.3 C 13.89 g/m*3 20.3 C 1.6 km/h
103 25-06-2022 10:30:00 20.4 C 14.15 g/m*3 20.4 C 3.2 km/h
104 25-06-2022 10:35:00 20.5 C 14.41 g/m*3 20.5 C 0 km/h
105 25-06-2022 10:40:00 20.7 C 14.58 g/m*3 20.7 C 1.6 km/h
106 25-06-2022 10:45:00 20.8 C 14.3 g/m*3 20.8 C 6.4 km/h
107 25-06-2022 10:50:00 20.9 C 14.21 g/m*3 20.9 C 4.8 km/h
108 25-06-2022 10:55:00 20.9 C 14.02 g/m*3 20.9 C 3.2 km/h
109 25-06-2022 11:00:00 21.1 C 14.19 g/m*3 21.1 C 0 km/h
110 25-06-2022 11:05:00 21.2 C 14.46 g/m*3 21.2 C 3.2 km/h
111 25-06-2022 11:10:00 21.2 C 13.9 g/m*3 21.2 C 4.8 km/h
112 25-06-2022 11:15:00 21.3 C 13.79 g/m*3 21.3 C 1.6 km/h
113 25-06-2022 11:20:00 21.4 C 14.06 g/m*3 21.4 C 3.2 km/h
114 25-06-2022 11:25:00 21.4 C 14.06 g/m*3 21.4 C 3.2 km/h
115 25-06-2022 11:30:00 21.7 C 13.93 g/m*3 21.7 C 4.8 km/h
116 25-06-2022 11:35:00 21.9 C 14.28 g/m*3 21.9 C 4.8 km/h
117 25-06-2022 11:40:00 22.2 C 14.33 g/m*3 22.2 C 6.4 km/h
118 25-06-2022 11:45:00 22.2 C 14.14 g/m*3 22.2 C 3.2 km/h
119 25-06-2022 11:50:00 22.3 C 13.82 g/m*3 22.3 C 3.2 km/h
120 25-06-2022 11:55:00 22.4 C 14.1 g/m*3 22.4 C 4.8 km/h
121 25-06-2022 12:00:00 22.5 C 14.38 g/m*3 22.5 C 4.8 km/h
122 25-06-2022 12:05:00 22.5 C 13.98 g/m*3 22.5 C 3.2 km/h
123 25-06-2022 12:10:00 22.6 C 14.26 g/m*3 22.6 C 4.8 km/h
124 25-06-2022 12:15:00 22.7 C 14.34 g/m*3 22.7 C 1.6 km/h
125 25-06-2022 12:20:00 23.1 C 14.47 g/m*3 23.1 C 3.2 km/h
Sensor: Nr:Datum:Temp:Abs-Feuchte:Windchill:Wind:
Aussen-T/F 126 25-06-2022 12:25:00 23.6 C 14.89 g/m*3 23.6 C 9.7 km/h
127 25-06-2022 12:30:00 24 C 14.36 g/m*3 24 C 9.7 km/h
128 25-06-2022 12:35:00 24.2 C 14.3 g/m*3 24.2 C 8.1 km/h

Legende:
   Min
   Max


Maximal/Minimal-Werte vom 25.06.2022 - 25.06.2022

Sensor Min Max Avg
Temp
(Aussen-T/F)
13.9 °C
25-06-2022  05:35:00
24.2 °C
25-06-2022  12:35:00
17.17 °C
Abs-Feuchte
(Aussen-T/F)
11.27 g/m*3
25-06-2022  05:35:00
14.89 g/m*3
25-06-2022  12:25:00
12.72 g/m*3
Windchill
(Aussen-T/F)
13.9 C
25-06-2022  05:35:00
24.2 C
25-06-2022  12:35:00
17.04 C

Die Daten stammen von einer Davis Vantage Pro 2 Wetter-Station und werden unter Linux mit der Software wview2wettercgi und aufbereitet. Alle Angaben erfolgen ohne Gewähr für ihre Vollständigkeit oder Richtigkeit.
Kontakt: Rainer Krienke krienke@uni-koblenz.de . Meine Webseiten an der Uni Koblenz oder privat.
Version: $Revision: 0.78 $